シューメーカー-レヴィ第1彗星

192P/Shoemaker-Levy 1 (1990)

English version
Home page
Updated on October 27, 2007

---------------------------------------------------------------------

・ プロフィール

符号 192P/1990 V1
発見日 1990年11月15日
発見光度 13等
発見者 Carolyn and Eugene Shoemaker and David H. Levy (Palomar)

・ 軌道要素

                    Epoch = 1990 Sept.26.0 TT
     T = 1990 Sept.18.5921 TT         Peri. = 310.6225
     e = 0.771949                     Node  =  52.0443  2000.0
     q = 1.524077 AU                  Incl. =  24.3335
       a =  6.683058 AU    n = 0.0570481    P =  17.28 years

・ 光度変化

        m1 = 9.0 + 5 logΔ + 25 log r(t - 50)

---------------------------------------------------------------------

軌道要素は、IAUC 8879に掲載されたものです。
光度グラフはComet for Windowsで作成したものです。

---------------------------------------------------------------------

Copyright(C) Seiichi Yoshida (comet@aerith.net). All rights reserved.